Location: El Gallo
(32.4380°N, 116.9347°W)
Time: 20:28:05
(UTC+00:00)

Cosmos 1302 Rocket - Pass Details

Date: 01 October 2022
Orbit: 757 x 775 km, 74.0° (Epoch: 01 December)

Event Time Altitude Azimuth Distance (km) Brightness Sun altitude
Rises 13:07:24 0° 204° (SSW) 3,223 7.0 -8.1°
Reaches altitude 10° 13:09:47 10° 207° (SSW) 2,303 6.2 -7.6°
Maximum altitude 13:14:57 62° 288° (WNW) 867 4.1 -6.5°
Drops below altitude 10° 13:20:11 10° 9° (N) 2,324 6.6 -5.4°
Sets 13:22:36 0° 13° (NNE) 3,255 7.4 -4.9°
